Probability
0 0 0 0 0 0 0 0 0 0 0 0 0 0 0 0 0 0 0 0 0 0 0 0 0 0 0 0 0 0 0 0 0 0 0 0 0 0 0 0 0 0 0
0 0 0 0 0 0 0 0 0 0 0 0 0 0 0 0 0 0 0 0 0 0 0 0 0 0 0 0 0 0 0 0 0 0 0 0 0 0 0 0 0 0 0
0 0 0 0 0 0 0 0 0 0 0 0 0 0 0 0 0 0 0 0 0 0 0 0 0 0 0 0 0 0 0 0 0 0 0 0 0 0 0 0 0 0 0
0 0 0 0 0 0 0 0 0 0 0 0 0 0 0 0 0 0 0 0 0 0 0 0 0 0 0 0 0 0 0 0 0 0 0 0 0 0 0 0 0 0 0
0 0 0 0 0 0 0 0 0 0 0 0 0 0 0 0 0 0 0 0 0 0 0 0 0 0 0 0 0 0 0 0 0 0 0 0 0 0 0 0 0 0 0
0 0 0 0 0 0 0 0 0 0 0 0 0 0 0 0 0 0 0 0 0 0 0 0 0 0 0 0 0 0 0 0 0 0 0 0 0 0 0 0 0 0 0
0 0 0 0 0 0 0 0 0 0 0 0 0 0 0 0 0 0 0 0 0 0 0 0 0 0 0 0 0 0 0 0 0 0 0 0 0 0 0 0 0 0 0
0 0 0 0 0 0 0 0 0 0 0 0 0 0 0 0 0 0 0 0 0 0 0 0 0 0 0 0 0 0 0 0 0 0 0 0 0 0 0 0 0 0 0
0 0 0 0 0 0 0 0 0 0 0 0 0 0 0 0 0 0 0 0 0 0 0 0 0 0 0 0 0 0 0 0 0 0 0 0 0 0 0 0 0 0 0
0 0 0 0 0 0 0 0 0 0 0 0 0 0 0 0 0 0 0 0 0 0 0 0 0 0 0 0 0 0 0 0 0 0 0 0 0 0 0 0 0 0 0
0 0 0 0 0 0 0 0 0 0 0 0 0 0 0 0 0 0 0 0 0 0 0 0 0 0 0 0 0 0 0 0 0 0 0 0 0 0 0 0 0 0 0
0 0 0 0 0 0 0 0 0 0 0 0 0 0 0 0 0 0 0 0 0 0 0 0 0 0 0 0 0 0 0 0 0 0 0 0 0 0 0 0 0 0 0
0 0 0 0 0 0 0 0 0 0 0 0 0 0 0 0 0 0 0 0 0 0 0 0 0 0 0 0 0 0 0 0 0 0 0 0 0 0 0 0 0 0 0
0 0 0 0 0 0 0 0 0 0 0 0 0 0 0 0 0 0 0 0 0 0 0 0 0 0 0 0 0 0 0 0 0 0 0 0 0 0 0 0 0 0 0
0 0 0 0 0 0 0 0 0 0 0 0 0 0 0 0 0 0 0 0 0 0 0 0 0 0 0 0 0 0 0 0 0 0 0 0 0 0 0 0 0 0 0
0 0 0 0 0 0 0 0 0 0 0 0 0 0 0 0 0 0 0 0 0 0 0 0 0 0 0 0 0 0 0 0 0 0 0 0 0 0 0 0 0 0 0
0 0 0 0 0 0 0 0 0 0 0 0 0 0 0 0 0 0 0 0 0 0 0 0 0 0 0 0 0 0 0 0 0 0 0 0 0 0 0 0 0 0 0
0 0 0 0 0 0 0 0 0 0 0 0 0 0 0 0 0 0 0 0 0 0 0 0 0 0 0 0 0 0 0 0 0 0 0 0 0 0 0 0 0 0 0
0 0 0 0 0 0 0 0 0 0 0 0 0 0 0 0 0 0 0 0 0 0 0 0 0 0 0 0 0 0 0 0 0 0 0 0 0 0 0 0 0 0 0
0 0 0 0 0 0 0 0 0 0 0 0 0 0 0 0 0 0 0 0 0 0 0 0 0 0 0 0 0 0 0 0 0 0 0 0 0 0 0 0 0 0 0
0 0 0 0 0 0 0 0 0 0 0 0 0 0 0 0 0 0 0 0 0 0 0 0 0 0 0 0 0 0 0 0 0 0 0 0 0 0 0 0 0 0 0
0 0 0 0 0 0 0 0 0 0 0 0 0 0 0 0 0 0 0 0 0 0 0 0 0 0 0 0 0 0 0 0 0 0 0 0 0 0 0 0 0 0 0
0 0 0 0 0 0 0 0 0 0 0 0 0 0 0 0 0 0 0 0 0 0 0 0 0 0 0 0 0 0 0 0 0 0 0 0 0 0 0 0 0 0 0
0 0 0 0 0 0 0 0 0 0 0 0 0 0 0 0 0 0 0 0 0 0 0 0 0 0 0 0 0 0 0 0 0 0 0 0 0 0 0 0 0 0 0
0 0 0 0 0 0 0 0 0 0 0 0 0 0 0 0 0 0 0 0 0 0 0 0 0 0 0 0 0 0 0 0 0 0 0 0 0 0 0 0 0 0 0
0 0 0 0 0 0 0 0 0 0 0 0 0 0 0 0 0 0 0 0 0 0 0 0 0 0 0 0 0 0 0 0 0 0 0 0 0 0 0 0 0 0 0
Wind_Speed
12 11 12 11 10 10 10 9 9 9 9 9 8 8 8 8 7 7 7 7 7 6 5 6 5 4 4 3 3 3 2 1 0 1 2 3 3 5 6 6 5 5 6
11 11 11 10 10 10 9 9 8 9 8 8 8 8 8 7 6 7 6 6 6 6 5 5 4 3 4 3 2 2 2 1 0 2 2 3 3 4 5 6 6 5 6
10 11 11 10 9 9 8 8 8 8 8 8 8 8 7 6 6 6 6 5 5 4 3 3 2 3 3 2 1 1 1 1 0 1 3 2 3 3 4 5 6 5 6
10 10 10 8 7 7 7 7 7 7 7 7 7 6 6 6 6 5 5 5 4 4 3 2 1 1 1 1 1 1 1 1 1 2 2 3 3 3 3 4 5 5 5
9 9 8 7 7 7 7 6 6 6 6 5 6 6 5 4 4 4 4 4 4 4 4 3 2 1 1 1 2 2 2 1 2 2 2 2 3 3 3 3 4 6 5
8 7 6 6 7 6 6 5 6 5 5 5 5 5 5 4 6 6 4 4 3 4 4 4 3 3 4 5 6 5 3 3 3 2 2 3 4 4 3 3 3 4 5
6 6 5 6 6 5 5 5 5 4 4 4 4 4 4 5 7 7 6 3 3 3 2 3 3 3 4 4 6 7 5 5 5 4 4 5 4 3 4 5 4 4 5
5 5 4 4 4 4 4 4 3 2 3 2 2 3 3 4 7 7 6 4 3 3 2 2 3 4 4 5 6 6 6 4 4 4 6 7 7 7 5 4 4 6 6
4 4 3 4 4 3 3 2 2 2 2 2 2 2 2 4 6 6 5 3 3 4 4 4 4 4 7 7 5 6 7 5 4 5 7 9 10 10 7 3 3 3 4
3 3 3 3 3 3 2 2 1 1 2 2 2 2 2 2 5 7 5 3 4 4 5 4 5 6 9 7 3 3 5 6 7 8 7 6 5 5 3 4 3 3 3
3 4 3 3 3 3 2 2 2 2 3 3 3 2 2 2 4 7 7 3 3 4 4 4 5 10 10 7 3 3 5 6 5 5 5 6 5 4 4 2 3 4 3
4 4 3 3 3 3 3 3 3 3 3 3 2 2 2 3 3 5 7 6 4 3 4 4 6 10 8 6 4 4 5 3 2 3 4 5 5 6 6 6 4 4 6
4 4 3 3 3 3 3 3 3 3 2 2 1 1 2 2 3 6 7 7 7 3 3 7 8 7 6 5 7 8 6 4 4 4 4 4 4 6 6 5 3 3 4
3 3 2 3 3 3 3 2 2 2 2 1 1 1 1 2 3 4 4 5 5 4 3 5 5 6 6 6 6 6 5 4 3 3 4 5 5 4 4 3 3 4 4
3 2 2 2 2 2 2 1 1 1 2 2 1 1 0 2 3 5 5 4 4 3 3 3 4 5 6 6 5 5 5 5 5 5 5 5 5 5 4 4 3 2 3
2 1 1 1 1 1 1 1 1 0 1 2 3 3 2 4 7 7 7 6 5 3 3 3 3 4 4 4 5 5 5 6 6 6 5 5 5 5 5 4 3 3 3
2 1 1 1 2 1 1 1 1 2 2 1 2 3 4 5 6 5 4 5 6 4 3 3 3 3 3 4 4 4 4 5 5 5 5 5 5 5 4 4 4 4 4
2 2 2 1 2 2 2 1 1 0 1 2 2 2 3 2 3 3 3 3 4 4 2 2 2 3 3 3 4 4 5 6 5 5 5 5 5 5 4 5 5 5 4
2 1 1 1 1 1 1 1 1 1 0 1 2 2 3 3 4 6 4 2 2 2 2 2 2 2 3 3 4 4 5 5 6 5 5 6 5 5 5 5 5 6 4
1 2 2 2 1 1 1 1 1 1 0 0 1 1 2 2 2 3 2 1 1 1 1 2 2 3 3 4 4 4 5 5 6 5 5 5 5 5 5 6 6 5 4
1 1 2 2 1 2 2 2 1 1 1 0 1 1 0 0 0 1 1 1 1 1 1 1 2 3 3 3 4 5 6 5 5 5 5 5 6 5 5 5 5 5 4
2 2 2 2 1 2 2 2 2 1 1 0 0 1 1 1 0 1 1 1 1 1 1 1 2 2 3 4 4 5 5 6 6 6 6 6 5 5 6 5 5 5 4
2 2 1 1 2 2 2 2 1 1 1 1 0 0 0 0 1 1 1 1 1 0 0 0 2 3 3 3 3 4 5 5 6 6 6 6 6 6 5 6 6 6 5
2 2 2 2 2 2 2 2 1 1 1 1 1 1 1 1 1 1 1 1 1 0 0 1 2 4 5 5 4 4 4 6 6 5 7 6 7 6 6 5 5 6 5
2 2 2 2 2 3 2 2 2 2 1 1 1 1 1 1 1 1 1 1 1 1 1 0 1 3 5 7 7 6 7 8 7 6 5 5 6 6 5 5 4 5 5
2 2 2 2 3 3 3 3 2 2 2 2 2 2 2 2 2 1 1 1 1 1 1 1 2 3 5 5 7 8 8 8 8 8 5 4 5 4 5 3 5 5 5
Wind_Direction
82 84 85 84 85 87 87 86 86 84 80 78 77 75 71 67 67 74 74 72 73 66 63 72 67 63 58 47 50 54 52 68 103 293 279 294 304 319 329 328 320 317 315
83 85 84 84 84 84 85 85 85 83 79 79 76 72 69 66 63 69 73 69 71 68 61 66 63 66 57 43 42 40 34 33 117 303 300 303 297 309 316 317 319 318 312
85 86 84 83 84 85 85 83 83 83 78 74 73 71 66 64 62 62 68 69 67 63 60 65 62 66 51 30 21 11 352 3 292 279 294 291 292 307 320 316 318 315 317
85 85 84 83 85 86 85 83 82 84 82 77 74 71 65 62 61 62 66 64 58 52 49 52 53 72 44 348 342 331 316 324 303 290 291 294 291 298 303 318 328 330 323
88 85 84 85 84 82 80 81 82 82 84 80 76 66 58 57 53 63 62 61 52 41 33 24 5 20 24 351 332 308 295 299 307 306 303 301 302 310 321 322 315 321 313
93 92 90 87 84 82 83 83 82 80 77 74 70 64 52 45 43 60 71 58 45 38 21 2 351 10 360 355 348 339 304 272 280 280 284 294 293 290 293 305 312 326 316
94 94 93 94 91 89 92 88 85 83 83 79 69 61 48 31 41 49 59 62 45 27 11 352 347 351 353 339 333 333 323 293 252 234 261 272 277 283 298 302 303 302 288
93 95 98 99 96 92 90 88 83 81 85 84 76 60 45 30 40 44 46 46 34 13 352 333 329 331 339 338 328 327 322 309 280 247 250 266 268 273 259 264 291 297 284
103 107 111 111 106 99 93 87 83 90 90 91 88 72 47 16 25 35 40 21 15 1 353 348 335 326 324 334 329 326 327 324 309 286 272 276 277 276 261 243 265 289 308
118 115 109 109 110 105 93 78 77 99 102 101 86 68 54 18 15 29 33 18 6 350 342 343 344 336 328 330 316 313 319 319 332 336 335 330 318 313 290 227 244 266 290
107 101 96 96 101 98 85 67 78 86 87 80 75 55 43 21 16 25 27 22 353 335 335 335 332 334 335 337 318 272 280 296 311 320 325 333 339 342 341 310 237 230 250
99 91 82 75 78 89 89 74 70 87 88 77 67 44 21 11 14 8 9 5 350 323 319 320 318 330 346 5 11 356 343 344 343 347 348 344 340 336 329 322 292 246 239
92 85 79 76 72 83 94 89 73 74 88 84 73 43 358 347 345 353 354 350 347 334 305 312 328 352 13 25 27 25 23 18 9 360 344 328 314 307 308 316 320 309 281
97 90 94 91 80 68 72 86 97 99 99 98 87 42 346 331 334 343 343 342 344 347 339 339 359 26 38 28 19 18 19 11 359 341 323 313 315 324 335 342 336 341 335
103 94 90 91 103 93 76 82 121 173 182 160 171 189 246 315 310 322 327 328 329 329 340 11 25 21 19 14 8 5 3 5 3 350 341 337 337 342 341 339 333 331 332
117 115 121 133 133 130 113 47 24 189 201 196 196 199 243 263 293 317 333 345 355 18 56 44 29 20 14 4 356 350 352 357 350 342 340 340 338 337 334 338 337 333 328
164 175 170 165 161 158 154 139 6 350 351 319 264 251 260 285 305 323 349 25 40 59 63 43 23 9 1 355 351 344 339 336 333 336 339 339 337 334 337 343 346 338 333
178 190 182 179 176 174 174 170 161 107 346 341 343 338 329 326 357 10 24 47 43 40 42 29 9 357 350 346 343 339 334 337 341 341 341 341 341 335 338 342 343 336 325
177 184 170 164 165 169 166 160 159 163 174 336 346 355 12 36 48 41 49 59 48 27 17 8 354 346 342 338 337 335 333 334 337 335 338 339 339 334 332 335 333 333 331
191 198 170 155 154 146 146 148 144 139 129 10 346 340 354 33 35 20 30 33 34 10 350 345 342 340 338 338 337 336 335 337 340 339 336 334 332 326 327 329 330 331 326
178 191 161 147 160 164 157 159 162 163 174 241 301 302 255 84 35 358 353 345 324 314 318 327 332 337 340 338 338 337 337 333 335 334 330 329 328 326 323 322 323 325 325
169 170 163 168 170 164 156 153 152 164 186 203 322 358 73 83 3 328 318 312 308 297 296 313 331 339 339 336 334 330 329 329 333 333 327 322 320 320 322 327 334 336 341
164 164 162 165 165 161 149 149 156 170 189 209 238 292 3 331 304 302 307 310 306 318 54 3 338 341 343 336 331 323 318 319 317 314 312 313 316 319 323 326 334 338 344
168 174 174 164 156 158 163 167 169 181 197 206 212 237 267 272 281 298 308 306 288 208 117 20 350 344 345 342 332 327 320 312 306 297 297 296 304 309 316 323 332 341 342
166 174 177 176 173 173 173 176 178 186 202 214 223 243 259 264 271 287 308 301 264 213 182 15 347 344 344 343 342 338 329 320 315 310 298 291 298 305 314 327 342 354 360
174 181 183 178 177 176 179 185 192 199 214 224 227 237 246 254 255 262 280 270 245 226 226 289 333 344 344 342 341 338 333 332 331 327 317 307 314 327 337 346 4 10 12